Location: Unspecified
(0.0000°N, 0.0000°E)
Time: 10:57:54
(UTC+00:00)

Hubble Space Telescope - Pass Details

Date: 17 March 2019
Orbit: 537 x 540 km, 28.5° (Epoch: 24 March)

Event Time Altitude Azimuth Distance (km) Brightness Sun altitude
Rises 19:41:43 0° 247° (WSW) 2,678 5.5 -23.3°
Reaches altitude 10° 19:44:00 10° 251° (WSW) 1,786 4.4 -23.9°
Enters shadow 19:47:51 55° 315° (NW) 642 1.2 -24.9°
